TJS-5

Last updated on Jan. 18, 2020, 12:02 a.m. UTC

1 44978U 20002A   20017.69107006  .00000039  00000-0  00000+0 0  9996
2 44978   1.0016 282.9669 0002003  23.8451 237.0950  1.00267937   227
UTC
Height (km)
Latitude
Longitude
Inclination
Orbital Period
UTC large
Height (km)
Speed (km/s)
/
Latitude / Longitude
Inclination (degrees)
Orbital Period (minutes)
Azimuth
Elevation
Range (km)
Doppler Factor
iOS Compass Heading
iOS Angle

Next 30 passes for location: Hong Kong

Rise time Rise Azimuth (degrees) Set time Set Azimuth (degrees) Duration Max altitude (degrees)

No matching passes for this satellites